DIVISION OF AGRICULTURAL PHYSICS
INDIAN AGRICULTURAL RESEARCH INSTITUTE
NEW DELHI, INDIA-110012
Phone No. 011-25843014

(IARI: Latitude: 280 38'23"N, Longitude:770 09'27"E., Altitude: 228.61m above msl.)
Duration of data : Last 60 days
Date Max.
Temp.
(oC)
Min.
Temp.
(oC)
Rainfall
(mm)
Wind
Speed
(Kmph)
Wind
Direction-I
Wind
Direction-II
Weather
condition-I
(Code 0-9)
Weather
condition-II
(Code 0-9)
RH-I
(%)
RH-II
(%)
BSS
(hrs)
Evaporation
(mm)
2019-04-28 41.3 26.2 0.00 9.7 W NNW 0 0 51.0 29.0 10.0 7.8
2019-04-29 42.0 23.5 0.00 6.6 W NW 0 0 50.0 37.0 8.7 8.0
2019-04-30 42.2 22.9 0.00 4.1 C S 0 0 53.0 36.0 9.7 8.2
2019-05-01 43.3 23.6 0.00 4.7 NE W 0 0 55.0 39.0 8.7 5.8
2019-05-02 41.2 27.1 0.00 4.4 NE SE 1 0 51.0 51.0 9.4 6.0
2019-05-03 39.0 25.8 0.00 9.4 NW NNW 0 0 67.0 33.0 8.2 6.2
2019-05-04 38.5 21.8 0.60 4.7 C NW 0 0 67.0 31.0 8.0 6.0
2019-05-05 39.4 20.3 0.00 5.1 W NW 0 0 51.0 41.0 9.3 6.2
2019-05-06 40.2 20.7 0.00 6.1 W W 0 0 53.0 41.0 8.7 6.6
2019-05-07 41.2 20.7 0.00 5.6 C 0 0 63.0 42.0 8.8 6.2
2019-05-08 42.5 22.5 0.00 6.7 W W 0 0 50.0 33.0 7.0 6.9
2019-05-09 42.9 25.5 0.00 7.9 W W 0 0 50.0 29.0 8.0 7.0
2019-05-10 42.5 30.5 0.00 8.8 W W 0 0 50.0 36.0 7.5 6.9
2019-05-11 42.5 23.5 0.00 13.0 W W 0 0 66.0 42.0 7.2 7.0
2019-05-12 39.4 25.2 0.00 9.9 NW W 1 0 58.0 41.0 6.7 6.2
2019-05-13 38.9 24.0 0.00 6.0 N NW 1 1 62.0 49.0 4.5 6.7
2019-05-14 39.8 23.2 8.40 6.3 C W 1 0 77.0 36.0 2.5 6.5
2019-05-15 40.0 23.1 0.00 3.3 C E 1 0 69.0 51.0 7.6 7.2
2019-05-16 33.7 24.0 12.00 7.4 NW NW 1 1 64.0 44.0 5.0 5.0
2019-05-17 35.6 24.0 0.00 5.1 W SW 1 1 74.0 35.0 3.2 4.6
2019-05-18 37.8 20.5 15.40 4.0 NW W 1 0 84.0 59.0 6.2 5.3
2019-05-19 33.0 24.0 0.00 8.2 W W 0 0 69.0 40.0 10.9 5.1
2019-05-20 37.8 21.2 0.00 5.2 C W 0 0 70.0 31.0 10.6 5.4
2019-05-21 41.4 24.3 0.00 5.4 W SW 0 1 71.0 36.0 10.2 7.0
2019-05-22 41.4 24.3 0.00 0.0 W 0 1 0.0 33.0 10.2 7.0
2019-05-23 39.8 25.4 0.00 4.2 W SW 1 1 61.0 36.0 4.3 5.5
2019-05-24 40.0 24.1 0.00 9.0 NW E 0 0 77.0 46.0 7.0 6.2
2019-05-25 38.0 25.0 0.00 7.7 NW NW 0 0 70.0 30.0 9.9 5.0
2019-05-26 39.0 23.9 0.00 7.9 NW NW 0 0 68.0 27.0 10.6 7.4
2019-05-27 39.8 24.0 0.00 5.8 SW W 0 0 59.0 23.0 10.8 8.0
2019-05-28 43.0 22.0 0.00 5.7 W W 0 0 52.0 23.0 11.8 8.6
2019-05-29 42.5 23.2 0.00 6.7 W W 0 0 53.0 28.0 10.8 8.0
2019-05-30 43.5 25.2 0.00 4.8 C W 0 0 56.0 25.0 10.2 8.4
2019-05-31 45.0 31.7 0.00 5.8 W SE 0 0 55.0 26.0 9.9 10.0
2019-06-01 45.0 26.8 0.00 4.1 SE NE 0 0 55.0 34.0 8.7 8.5
2019-06-02 43.2 31.7 0.00 4.6 SE S 0 0 60.0 40.0 9.1 7.8
2019-06-03 42.5 29.9 0.00 9.2 SE SE 0 0 61.0 45.0 9.0 7.2
2019-06-04 39.8 29.2 0.00 10.1 SE SE 1 0 67.0 44.0 8.8 6.2
2019-06-05 41.0 30.3 0.00 5.0 SE C 1 0 59.0 37.0 9.4 7.0
2019-06-06 43.0 28.0 0.00 4.5 C NW 1 0 52.0 34.0 8.9 7.5
2019-06-07 43.8 25.0 0.00 6.9 S N 0 0 61.0 44.0 8.4 8.2
2019-06-08 40.0 27.0 0.00 2.2 SE NW 0 0 59.0 30.0 10.1 7.8
2019-06-09 43.5 26.1 0.00 3.4 C NW 0 0 52.0 29.0 10.6 8.0
2019-06-10 44.2 27.2 0.00 3.0 C NW 0 0 73.0 23.0 10.1 8.2
2019-06-11 46.2 31.2 0.00 5.1 C N 0 0 40.0 27.0 10.2 9.4
2019-06-12 39.6 31.1 0.00 4.1 E SSE 3 1 57.0 41.0 5.1 9.4
2019-06-13 40.4 28.6 0.00 9.4 NW W 0 0 52.0 34.0 9.1 8.3
2019-06-14 41.0 31.1 0.00 8.0 W NW 0 0 59.0 24.0 9.4 7.9
2019-06-15 43.6 26.6 0.00 5.9 C N 0 0 49.0 30.0 10.0 10.2
2019-06-16 43.5 28.8 0.00 9.4 NNW W 1 1 54.0 39.0 8.3 8.0
2019-06-17 36.4 28.9 0.00 12.8 W W 0 1 67.0 57.0 5.0 7.2
2019-06-18 33.3 22.0 31.20 12.6 N NW 2 0 73.0 57.0 0.8 6.0
2019-06-19 34.4 24.4 0.00 5.0 C N 1 0 84.0 47.0 4.6 5.1
2019-06-20 36.2 24.8 0.00 3.9 S W 0 0 79.0 48.0 9.7 4.0
2019-06-21 38.5 28.1 0.00 3.8 E NW 0 2 73.0 48.0 9.9 6.2
2019-06-22 38.5 25.7 0.20 2.6 C N 0 0 70.0 40.0 4.8 5.8
2019-06-23 40.5 29.0 0.00 6.1 SE SE 0 1 80.0 52.0 9.8 7.0
2019-06-24 40.0 27.7 0.00 8.2 SE SE 1 1 78.0 72.0 10.2 6.2
2019-06-25 36.0 27.8 0.00 6.1 SE 1 0 74.0 0.0 3.4 5.8

Abbrevations used:
I - Observations taken at 7.21 hrs. and II - Observations taken at 14:21 hrs.
Codes:
0 - Fair (clear and slightly clouded), 1 - Variable Sky, 2 - Mainly Overcast, 3 - Sand Storm or Dust Storm,4 - Fog or Thick Dust Haze, 5 - Drizzle, 6 - Rain,7 - Snow or Sleet, 8 - Shower (s), 9 - Thunder Storm with or without Precipitation